Welcome to the New NWS' Forecast!
Most changes are behind the scenes, but click here for differences you might notice.

Regional Weather Roundup (RWR)

Issued by National Weather Service (NWS)

                            
000
ASUS46 KSEW 150410
RWRWA 

WASHINGTON REGIONAL WEATHER ROUNDUP
NATIONAL WEATHER SERVICE SEATTLE WA
800 PM PST WED NOV 14 2018

NOTE:"FAIR" INDICATES FEW OR NO CLOUDS BELOW 12,000 FEET WITH NO 
SIGNIFICANT WEATHER AND/OR OBSTRUCTIONS TO VISIBILITY.

WAZ507-509-555>559-150500-
SEATTLE, TACOMA, EVERETT, AND VICINITY
  
CITY           SKY/WX    TMP DP  RH WIND       PRES   REMARKS
EVERETT        CLOUDY    51  49  92 SE6       30.35S                  
BOEING FIELD   CLOUDY    54  47  77 S7        30.36R                  
RENTON         CLOUDY    54  48  80 SE5       30.35S                  
SEATAC AIRPORT CLOUDY    52  48  86 S5        30.35S                  
JBLM-MCCHORD   MOCLDY    49  49 100 S9        30.35S                  
PUYALLUP       FAIR      50  48  93 CALM      30.36R                  
BREMERTON      CLOUDY    49  49 100 S5        30.34S FOG              
JBLM-FT LEWIS  MOCLDY    48  48 100 E5        30.35S                  
TACOMA NARROWS MOCLDY    48  46  93 S8        30.36R                  
$$
 
WAZ001-503-506-510-514-515-150500-
NORTH INTERIOR
  
CITY           SKY/WX    TMP DP  RH WIND       PRES   REMARKS
BELLINGHAM     PTCLDY    51  47  86 S10G17    30.33R                  
FRIDAY HARBOR  CLOUDY    51  47  86 SE7       30.35R                  
EASTSOUND      PTCLDY    52  50  93 S14       30.31R                  
PORT ANGELES   CLOUDY    48  46  93 CALM      30.35R                  
EDIZ HOOK      CLOUDY    49  48  94 SW3       30.35R                  
PORT TOWNSEND  FOG       45  45 100 CALM      30.34R VSB<1/4          
NAS WHIDBEY    MOCLDY    51  47  86 SE7       30.39R                  
ARLINGTON      CLOUDY    46  46 100 N3        30.35S FOG              
BURLINGTON     CLOUDY    48  48 100 CALM      30.35S                  
$$
 
WAZ020-022-039-040-504-511-512-150500-
SOUTHWEST INTERIOR
  
CITY           SKY/WX    TMP DP  RH WIND       PRES   REMARKS
SHELTON        CLOUDY    52  50  93 W7        30.33S                  
OLYMPIA        MOCLDY    46  44  93 S8        30.36F FOG              
CHEHALIS       FAIR      45  45 100 SW3       30.38S                  
KELSO          CLOUDY    48  46  93 SE7       30.41S FOG              
VANCOUVER      CLOUDY    47  46  97 CALM      30.40F FOG              
SCAPPOOSE, OR  CLOUDY    46  45  96 CALM      30.41S FOG              
PORTLAND, OR   CLOUDY    47  46  97 CALM      30.41F FOG              
$$
 
WAZ021-516-517-150500-
WASHINGTON COAST
  
CITY           SKY/WX    TMP DP  RH WIND       PRES   REMARKS
FORKS          CLOUDY    48  48 100 CALM      30.35R FOG              
HOQUIAM        CLOUDY    52  51  97 S5        30.37S FOG              
ASTORIA, OR    CLOUDY    49  48  97 CALM      30.38S FOG              
$$
 
WAZ019-023-024-040-567>569-150500-
CASCADE MOUNTAINS AND COLUMBIA GORGE
  
CITY           SKY/WX    TMP DP  RH WIND       PRES   REMARKS
STAMPEDE PASS  CLOUDY    40  38  93 VRB7      30.31R FOG              
TROUTDALE, OR  CLOUDY    47  45  93 CALM      30.41S FOG              
HOOD RIVER, OR MOCLDY    41  39  93 CALM      30.37F FOG              
THE DALLES, OR MOCLDY    51  44  77 NW15      30.34F                  
$$

WAZ026-027-041>044-520-521-150500-
EAST SLOPES
  
CITY           SKY/WX    TMP DP  RH WIND       PRES   REMARKS
OMAK           CLOUDY    33  30  88 CALM      30.37R                  
WENATCHEE      CLOUDY    32  30  92 CALM      30.37R FOG              
ELLENSBURG     CLOUDY    42  34  73 E6        30.31R                  
YAKIMA         MOCLDY    28  25  88 NW3       30.35R FOG              
SUNNYSIDE ARPT PTCLDY    30  29  96 CALM      30.36R FOG              
YAKIMA TC      FAIR      29  27  91 CALM      30.32R FOG              
$$

WAZ028-034-035-150500-
COLUMBIA BASIN
  
CITY           SKY/WX    TMP DP  RH WIND       PRES   REMARKS
EPHRATA        CLOUDY    32  31  96 NE7       30.36R FOG              
MOSES LAKE     CLOUDY    32  30  92 N8        30.36R                  
PASCO          MOCLDY    32  29  88 NW6       30.37R                  
RICHLAND ARPT  MOCLDY    33  31  90 W7        30.37                   
HERMISTON, OR  CLOUDY    44  35  70 SE3       30.34R                  
$$

WAZ036>038-150500-
NORTHEAST WASHINGTON
  
CITY           SKY/WX    TMP DP  RH WIND       PRES   REMARKS
SPOKANE GEIGER CLOUDY    35  27  72 E5        30.30R                  
SPOKANE FELTS  CLOUDY    39  30  70 W3        30.31S                  
FAIRCHILD AFB  CLOUDY    32  32  99 NE5       30.29R                  
COEURDALENE,ID MOCLDY    35  30  82 S5        30.30S                  
DEER PARK      MOCLDY    28  26  92 CALM      30.30F                  
$$

WAZ029>033-150500-
SOUTHEAST WASHINGTON
  
CITY           SKY/WX    TMP DP  RH WIND       PRES   REMARKS
PULLMAN        CLOUDY    47  33  58 W12       30.32S                  
LEWISTON, ID   CLOUDY    47  32  56 CALM      30.32S                  
WALLA WALLA    CLOUDY    48  33  56 S6        30.33S                  
PENDLETON, OR  CLOUDY    44  31  60 SE5       30.33S                  
$$